| time (UTC) | temp F | wind direction | speed MPH | gust MPH | rain 1hr in | rain 24hr in | rain mn in | humidity % | barometer mb |
| 20260507015003 | 51 | 0 | 0.0 | 0.0 | 0.00 | 0.39 | 0.39 | 91 | 1009.6 |
| 20260507014003 | 51 | 0 | 0.0 | 0.0 | 0.00 | 0.39 | 0.39 | 91 | 1009.4 |
| 20260507013214 | 51 | 0 | 0.0 | 0.0 | 0.00 | 0.39 | 0.39 | 91 | 1009.6 |
| 20260507012003 | 51 | 0 | 0.0 | 0.0 | 0.00 | 0.39 | 0.39 | 90 | 1009.7 |
| 20260507011003 | 51 | 0 | 0.0 | 0.0 | 0.00 | 0.39 | 0.39 | 90 | 1009.1 |
| 20260507010004 | 51 | 0 | 0.0 | 0.0 | 0.00 | 0.39 | 0.39 | 91 | 1009.1 |
| 20260507005214 | 51 | 0 | 0.0 | 0.0 | 0.00 | 0.39 | 0.39 | 91 | 1009.1 |
| 20260507004003 | 51 | 0 | 0.0 | 0.0 | 0.00 | 0.39 | 0.39 | 90 | 1008.9 |
| 20260507003003 | 51 | 0 | 0.0 | 0.0 | 0.00 | 0.39 | 0.39 | 90 | 1008.7 |
| 20260507002214 | 51 | 0 | 0.0 | 0.0 | 0.00 | 0.39 | 0.39 | 90 | 1008.5 |
| 20260507001003 | 52 | 0 | 0.0 | 0.0 | 0.00 | 0.39 | 0.39 | 90 | 1008.3 |
| 20260507000003 | 52 | 193 | 0.0 | 2.0 | 0.00 | 0.39 | 0.39 | 89 | 1008.2 |
| 20260506235003 | 52 | 184 | 1.0 | 5.0 | 0.00 | 0.39 | 0.39 | 88 | 1007.8 |
| 20260506234214 | 52 | 252 | 1.0 | 5.0 | 0.00 | 0.39 | 0.39 | 88 | 1007.8 |
| 20260506233003 | 52 | 237 | 1.0 | 5.0 | 0.00 | 0.39 | 0.39 | 89 | 1007.7 |
| 20260506232003 | 52 | 310 | 1.0 | 4.0 | 0.01 | 0.39 | 0.39 | 89 | 1007.7 |
| 20260506231003 | 53 | 290 | 1.0 | 4.0 | 0.01 | 0.39 | 0.39 | 89 | 1007.5 |
| 20260506230003 | 53 | 264 | 1.0 | 4.0 | 0.01 | 0.39 | 0.39 | 89 | 1007.3 |
| 20260506225003 | 53 | 228 | 2.0 | 5.0 | 0.01 | 0.39 | 0.39 | 89 | 1007.1 |
| 20260506224213 | 54 | 302 | 2.0 | 5.0 | 0.01 | 0.39 | 0.39 | 89 | 1007.0 |
| 20260506223003 | 56 | 242 | 1.0 | 9.0 | 0.01 | 0.39 | 0.39 | 89 | 1006.7 |
| 20260506222003 | 56 | 292 | 1.0 | 7.0 | 0.00 | 0.38 | 0.38 | 88 | 1006.4 |
| 20260506221213 | 57 | 264 | 2.0 | 9.0 | 0.00 | 0.38 | 0.38 | 87 | 1006.1 |
| 20260506220003 | 59 | 302 | 4.0 | 11.0 | 0.00 | 0.38 | 0.38 | 85 | 1005.4 |
| 20260506215213 | 62 | 302 | 4.0 | 11.0 | 0.00 | 0.38 | 0.38 | 86 | 1005.1 |
| 20260506214003 | 64 | 25 | 1.0 | 6.0 | 0.00 | 0.38 | 0.38 | 91 | 1004.6 |
| 20260506213003 | 64 | 57 | 1.0 | 3.0 | 0.00 | 0.38 | 0.38 | 91 | 1004.4 |
| 20260506212003 | 64 | 2 | 1.0 | 5.0 | 0.00 | 0.38 | 0.38 | 90 | 1004.2 |
| 20260506211003 | 64 | 3 | 1.0 | 2.0 | 0.00 | 0.38 | 0.38 | 91 | 1004.0 |
| 20260506210003 | 64 | 16 | 0.0 | 4.0 | 0.00 | 0.38 | 0.38 | 91 | 1003.9 |
| 20260506205003 | 64 | 50 | 1.0 | 3.0 | 0.00 | 0.38 | 0.38 | 92 | 1003.8 |
| 20260506204003 | 64 | 48 | 1.0 | 4.0 | 0.00 | 0.38 | 0.38 | 92 | 1003.8 |
| 20260506203003 | 64 | 16 | 2.0 | 5.0 | 0.00 | 0.38 | 0.38 | 92 | 1003.7 |
| 20260506202003 | 64 | 74 | 1.0 | 7.0 | 0.00 | 0.38 | 0.38 | 92 | 1003.7 |
| 20260506201003 | 64 | 19 | 1.0 | 5.0 | 0.00 | 0.38 | 0.38 | 92 | 1003.7 |
| 20260506200003 | 63 | 9 | 1.0 | 4.0 | 0.00 | 0.38 | 0.38 | 93 | 1003.7 |
| 20260506195003 | 63 | 0 | 0.0 | 0.0 | 0.00 | 0.38 | 0.38 | 94 | 1003.9 |
| 20260506194003 | 63 | 0 | 0.0 | 0.0 | 0.00 | 0.38 | 0.38 | 94 | 1003.9 |
| 20260506193003 | 63 | 0 | 0.0 | 0.0 | 0.00 | 0.38 | 0.38 | 94 | 1004.0 |
| 20260506192003 | 63 | 344 | 0.0 | 3.0 | 0.00 | 0.38 | 0.38 | 94 | 1004.0 |
| 20260506191003 | 63 | 7 | 1.0 | 8.0 | 0.00 | 0.38 | 0.38 | 94 | 1004.2 |
| 20260506190214 | 63 | 57 | 1.0 | 6.0 | 0.00 | 0.38 | 0.38 | 94 | 1004.1 |
| 20260506185214 | 62 | 357 | 1.0 | 6.0 | 0.00 | 0.38 | 0.38 | 95 | 1004.1 |
| 20260506184003 | 62 | 18 | 1.0 | 3.0 | 0.01 | 0.38 | 0.38 | 95 | 1004.1 |
| 20260506183003 | 62 | 15 | 1.0 | 6.0 | 0.01 | 0.38 | 0.38 | 95 | 1004.4 |
| 20260506182003 | 62 | 8 | 1.0 | 4.0 | 0.01 | 0.38 | 0.38 | 95 | 1004.5 |
| 20260506181003 | 61 | 0 | 0.0 | 0.0 | 0.02 | 0.38 | 0.38 | 95 | 1004.5 |
| 20260506180004 | 61 | 0 | 0.0 | 0.0 | 0.03 | 0.38 | 0.38 | 96 | 1004.5 |
| 20260506175003 | 61 | 40 | 0.0 | 4.0 | 0.03 | 0.38 | 0.38 | 95 | 1004.5 |
| 20260506174003 | 61 | 0 | 0.0 | 0.0 | 0.02 | 0.37 | 0.37 | 95 | 1004.5 |
| 20260506173213 | 61 | 0 | 0.0 | 0.0 | 0.02 | 0.37 | 0.37 | 95 | 1004.6 |
| 20260506172003 | 61 | 0 | 0.0 | 0.0 | 0.03 | 0.37 | 0.37 | 96 | 1004.6 |
| 20260506171003 | 60 | 0 | 0.0 | 0.0 | 0.03 | 0.36 | 0.36 | 95 | 1004.6 |
| 20260506170003 | 60 | 0 | 0.0 | 0.0 | 0.03 | 0.35 | 0.35 | 95 | 1004.6 |
| 20260506165003 | 60 | 0 | 0.0 | 0.0 | 0.03 | 0.35 | 0.35 | 95 | 1004.7 |
| 20260506164003 | 60 | 0 | 0.0 | 0.0 | 0.04 | 0.35 | 0.35 | 95 | 1004.6 |
| 20260506163003 | 60 | 0 | 0.0 | 0.0 | 0.06 | 0.35 | 0.35 | 94 | 1004.6 |
| 20260506162003 | 61 | 0 | 0.0 | 0.0 | 0.06 | 0.34 | 0.34 | 95 | 1004.6 |
| 20260506161213 | 61 | 0 | 0.0 | 0.0 | 0.08 | 0.34 | 0.34 | 95 | 1004.6 |
| 20260506160003 | 60 | 0 | 0.0 | 0.0 | 0.09 | 0.32 | 0.32 | 95 | 1004.5 |
| 20260506155003 | 60 | 0 | 0.0 | 0.0 | 0.10 | 0.32 | 0.32 | 95 | 1004.6 |
| 20260506154003 | 60 | 0 | 0.0 | 0.0 | 0.11 | 0.31 | 0.31 | 95 | 1004.6 |
| 20260506153003 | 60 | 0 | 0.0 | 0.0 | 0.10 | 0.29 | 0.29 | 94 | 1004.9 |
| 20260506152003 | 60 | 5 | 0.0 | 8.0 | 0.11 | 0.28 | 0.28 | 94 | 1004.9 |
| 20260506151214 | 60 | 354 | 0.0 | 8.0 | 0.10 | 0.26 | 0.26 | 94 | 1005.1 |
| 20260506150214 | 60 | 0 | 0.0 | 0.0 | 0.08 | 0.23 | 0.23 | 94 | 1005.1 |
| 20260506145003 | 61 | 0 | 0.0 | 0.0 | 0.10 | 0.22 | 0.22 | 94 | 1004.9 |
| 20260506144003 | 61 | 0 | 0.0 | 0.0 | 0.09 | 0.20 | 0.20 | 94 | 1004.9 |
| 20260506143003 | 60 | 0 | 0.0 | 0.0 | 0.09 | 0.19 | 0.19 | 94 | 1004.9 |
| 20260506142003 | 60 | 0 | 0.0 | 0.0 | 0.09 | 0.17 | 0.17 | 94 | 1004.9 |
| 20260506141003 | 60 | 0 | 0.0 | 0.0 | 0.09 | 0.16 | 0.16 | 94 | 1005.1 |
| 20260506140003 | 60 | 0 | 0.0 | 0.0 | 0.08 | 0.14 | 0.14 | 94 | 1005.1 |
| 20260506135003 | 60 | 0 | 0.0 | 0.0 | 0.08 | 0.12 | 0.12 | 94 | 1005.0 |
| 20260506134003 | 60 | 0 | 0.0 | 0.0 | 0.08 | 0.11 | 0.11 | 94 | 1005.2 |
| 20260506133003 | 60 | 0 | 0.0 | 0.0 | 0.09 | 0.10 | 0.10 | 93 | 1005.5 |
| 20260506132003 | 60 | 0 | 0.0 | 0.0 | 0.07 | 0.08 | 0.08 | 93 | 1005.5 |
| 20260506131214 | 60 | 0 | 0.0 | 0.0 | 0.06 | 0.07 | 0.07 | 93 | 1005.5 |
| 20260506130004 | 60 | 0 | 0.0 | 0.0 | 0.06 | 0.06 | 0.06 | 92 | 1005.7 |
| 20260506125003 | 61 | 0 | 0.0 | 0.0 | 0.04 | 0.04 | 0.04 | 91 | 1005.8 |
| 20260506124213 | 61 | 0 | 0.0 | 0.0 | 0.03 | 0.03 | 0.03 | 90 | 1005.9 |
| 20260506123003 | 62 | 0 | 0.0 | 0.0 | 0.01 | 0.01 | 0.01 | 90 | 1005.7 |
| 20260506122003 | 62 | 0 | 0.0 | 0.0 | 0.01 | 0.01 | 0.01 | 89 | 1005.4 |
| 20260506121003 | 63 | 0 | 0.0 | 0.0 | 0.01 | 0.01 | 0.01 | 87 | 1005.3 |
| 20260506120004 | 63 | 0 | 0.0 | 0.0 | 0.00 | 0.00 | 0.00 | 84 | 1005.1 |
| 20260506115003 | 64 | 107 | 0.0 | 1.0 | 0.00 | 0.00 | 0.00 | 82 | 1005.1 |
| 20260506114003 | 64 | 107 | 0.0 | 2.0 | 0.00 | 0.00 | 0.00 | 79 | 1005.1 |
| 20260506113003 | 64 | 96 | 0.0 | 3.0 | 0.00 | 0.00 | 0.00 | 79 | 1005.0 |
| 20260506112003 | 64 | 0 | 0.0 | 0.0 | 0.00 | 0.00 | 0.00 | 77 | 1005.0 |
| 20260506111003 | 64 | 0 | 0.0 | 0.0 | 0.00 | 0.00 | 0.00 | 76 | 1004.8 |
| 20260506110003 | 64 | 0 | 0.0 | 0.0 | 0.00 | 0.00 | 0.00 | 75 | 1004.7 |
| 20260506105003 | 64 | 12 | 1.0 | 2.0 | 0.00 | 0.00 | 0.00 | 74 | 1004.5 |
| 20260506104003 | 64 | 8 | 0.0 | 2.0 | 0.00 | 0.00 | 0.00 | 74 | 1004.6 |
| 20260506103003 | 64 | 5 | 0.0 | 1.0 | 0.00 | 0.00 | 0.00 | 74 | 1004.5 |
| 20260506102003 | 65 | 6 | 0.0 | 2.0 | 0.00 | 0.00 | 0.00 | 72 | 1004.2 |
| 20260506101003 | 64 | 7 | 0.0 | 5.0 | 0.00 | 0.00 | 0.00 | 71 | 1004.0 |
| 20260506100214 | 64 | 0 | 0.0 | 0.0 | 0.00 | 0.00 | 0.00 | 72 | 1004.2 |
| 20260506095003 | 64 | 74 | 0.0 | 1.0 | 0.00 | 0.00 | 0.00 | 71 | 1004.3 |
| 20260506094003 | 64 | 0 | 0.0 | 0.0 | 0.00 | 0.00 | 0.00 | 72 | 1004.3 |
| 20260506093003 | 63 | 100 | 0.0 | 1.0 | 0.00 | 0.00 | 0.00 | 73 | 1004.5 |
| 20260506092003 | 63 | 100 | 0.0 | 2.0 | 0.00 | 0.00 | 0.00 | 74 | 1004.4 |
| 20260506091003 | 62 | 107 | 0.0 | 3.0 | 0.00 | 0.00 | 0.00 | 74 | 1004.3 |
| 20260506090214 | 63 | 112 | 0.0 | 3.0 | 0.00 | 0.00 | 0.00 | 73 | 1004.4 |
| 20260506085214 | 63 | 125 | 0.0 | 3.0 | 0.00 | 0.00 | 0.00 | 73 | 1004.4 |
| 20260506084003 | 63 | 0 | 0.0 | 0.0 | 0.00 | 0.00 | 0.00 | 70 | 1004.5 |
| 20260506083003 | 64 | 0 | 0.0 | 0.0 | 0.00 | 0.00 | 0.00 | 70 | 1004.4 |
| 20260506082003 | 64 | 0 | 0.0 | 0.0 | 0.00 | 0.00 | 0.00 | 69 | 1004.6 |
| 20260506081003 | 63 | 0 | 0.0 | 0.0 | 0.00 | 0.00 | 0.00 | 69 | 1004.5 |
| 20260506073003 | 63 | 0 | 0.0 | 0.0 | 0.00 | 0.00 | 0.00 | 71 | 1004.3 |
| 20260506072003 | 63 | 0 | 0.0 | 0.0 | 0.00 | 0.00 | 0.00 | 71 | 1004.6 |
| 20260506071003 | 62 | 60 | 0.0 | 1.0 | 0.00 | 0.00 | 0.00 | 72 | 1004.6 |
| 20260506070213 | 62 | 60 | 0.0 | 2.0 | 0.00 | 0.00 | 0.00 | 73 | 1004.9 |
| 20260506062213 | 59 | 60 | 0.0 | 2.0 | 0.00 | 0.00 | 0.00 | 81 | 1005.2 |
| 20260506061003 | 57 | 0 | 0.0 | 0.0 | 0.00 | 0.00 | 0.00 | 86 | 1005.3 |
| 20260506051003 | 53 | 0 | 0.0 | 0.0 | 0.00 | 0.00 | 0.00 | 92 | 1005.9 |
| 20260506045003 | 53 | 0 | 0.0 | 0.0 | 0.00 | 0.00 | 0.00 | 91 | 1006.0 |
| 20260506044003 | 54 | 0 | 0.0 | 0.0 | 0.00 | 0.00 | 0.00 | 91 | 1005.9 |
| 20260506043214 | 54 | 0 | 0.0 | 0.0 | 0.00 | 0.00 | 0.00 | 91 | 1005.8 |
| 20260506042003 | 54 | 0 | 0.0 | 0.0 | 0.00 | 0.00 | 0.00 | 90 | 1005.9 |
| 20260506041003 | 54 | 0 | 0.0 | 0.0 | 0.00 | 0.00 | 0.00 | 90 | 1006.1 |
| 20260506040004 | 55 | 0 | 0.0 | 0.0 | 0.00 | 0.00 | 0.00 | 90 | 1006.1 |
| 20260506035214 | 55 | 0 | 0.0 | 0.0 | 0.00 | 0.00 | 0.00 | 90 | 1006.0 |
| 20260506034003 | 56 | 0 | 0.0 | 0.0 | 0.00 | 0.00 | 0.00 | 89 | 1006.2 |
| 20260506033214 | 56 | 0 | 0.0 | 0.0 | 0.00 | 0.00 | 0.00 | 89 | 1006.2 |
| 20260506032003 | 56 | 0 | 0.0 | 0.0 | 0.00 | 0.00 | 0.00 | 88 | 1006.2 |
| 20260506031003 | 57 | 0 | 0.0 | 0.0 | 0.00 | 0.00 | 0.00 | 87 | 1006.2 |
| 20260506030003 | 57 | 0 | 0.0 | 0.0 | 0.00 | 0.00 | 0.00 | 86 | 1006.1 |
| 20260506025003 | 58 | 0 | 0.0 | 0.0 | 0.00 | 0.00 | 0.00 | 85 | 1006.1 |
| 20260506024003 | 59 | 0 | 0.0 | 0.0 | 0.00 | 0.00 | 0.00 | 84 | 1006.2 |
| 20260506023003 | 59 | 0 | 0.0 | 0.0 | 0.00 | 0.00 | 0.00 | 83 | 1006.2 |
| 20260506022003 | 60 | 0 | 0.0 | 0.0 | 0.00 | 0.00 | 0.00 | 82 | 1006.2 |
| 20260506021213 | 60 | 0 | 0.0 | 0.0 | 0.00 | 0.00 | 0.00 | 82 | 1006.1 |
| 20260506020003 | 61 | 0 | 0.0 | 0.0 | 0.00 | 0.00 | 0.00 | 80 | 1006.2 |
| 20260506015213 | 62 | 0 | 0.0 | 0.0 | 0.00 | 0.00 | 0.00 | 80 | 1006.2 |